Location: Derby
(52.9213°N, 1.4761°W)
Time: 18:02:46
(UTC+01:00)

Tiros 1 - Pass Details

Date: 25 May 2025
Orbit: 620 x 651 km, 48.4° (Epoch: 13 June)

Event Time Altitude Azimuth Distance (km) Brightness Sun altitude
Rises 22:06:22 0° 275° (W) 2,909 11.3 -6.7°
Reaches altitude 10° 22:09:20 10° 256° (WSW) 2,005 10.0 -7.0°
Maximum altitude 22:12:20 17° 215° (SW) 1,580 9.0 -7.3°
Drops below altitude 10° 22:15:21 10° 174° (S) 2,011 9.2 -7.5°
Enters shadow 22:16:15 - 166° (SSE) 2,255 9.4 -7.6°
Sets 22:18:20 0° 155° (SSE) 2,923 - -7.8°
